EDT,Max TemperatureF,Mean TemperatureF,Min TemperatureF,Max Dew PointF,MeanDew PointF,Min DewpointF,Max Humidity, Mean Humidity, Min Humidity, Max Sea Level PressureIn, Mean Sea Level PressureIn, Min Sea Level PressureIn, Max VisibilityMiles, Mean VisibilityMiles, Min VisibilityMiles, Max Wind SpeedMPH, Mean Wind SpeedMPH, Max Gust SpeedMPH,PrecipitationIn, CloudCover, Events, WindDirDegrees
2013-4-1,53,44,36,46,41,15,100,87,42,29.84,29.65,29.59,10,5,0,18,11,33,0.00,5,Fog-Rain,248
2013-4-2,44,36,30,19,11,6,64,37,22,30.01,29.93,29.87,10,10,10,22,12,31,0.00,1,,280
2013-4-3,46,38,30,14,11,8,47,34,21,30.23,30.07,30.01,10,10,10,22,13,31,0.00,0,,291
2013-4-4,46,38,30,33,22,11,77,53,36,30.35,30.24,30.12,10,10,9,20,12,26,0.00,0,,248
2013-4-5,57,48,39,38,29,12,86,59,20,30.08,29.86,29.67,10,9,8,21,11,30,0.00,2,,241
2013-4-6,50,40,30,27,16,4,82,43,17,30.34,30.19,29.94,10,10,8,20,13,31,0.00,0,,306
2013-4-7,50,38,27,42,34,23,90,78,56,30.33,30.21,30.05,10,8,7,17,6,,0.00,1,,186
2013-4-8,59,49,41,44,41,38,97,78,47,30.09,30.04,29.99,9,7,2,14,5,,0.00,1,,175
2013-4-9,80,62,44,49,44,38,100,76,24,30.07,29.95,29.88,10,5,0,22,8,29,0.01,3,Fog-Rain-Thunderstorm,134
2013-4-10,64,53,44,48,44,42,97,83,60,29.96,29.91,29.86,9,7,4,18,8,28,0.13,4,Rain,97
2013-4-11,59,52,44,48,44,34,100,83,62,30.10,29.94,29.82,10,8,2,18,7,25,0.00,8,Rain,50
2013-4-12,46,42,39,39,35,24,93,81,44,30.10,29.90,29.73,10,5,2,28,16,46,0.32,8,Rain,68
2013-4-13,54,46,39,39,36,32,89,73,47,29.96,29.85,29.71,10,10,7,15,11,23,0.00,6,Rain,295
2013-4-14,57,48,41,39,31,23,82,53,33,30.23,30.04,29.95,10,10,8,20,9,28,0.00,4,,293
2013-4-15,50,42,37,39,32,23,93,63,46,30.41,30.34,30.22,10,10,8,10,7,25,0.00,0,,106
2013-4-16,55,44,35,47,42,34,97,83,64,30.40,30.29,30.16,10,8,2,13,5,,0.00,4,Rain,182
2013-4-17,70,58,41,52,40,31,94,61,24,30.32,30.18,30.11,10,10,7,13,8,18,0.00,3,Rain,307
2013-4-18,57,46,37,46,38,32,93,70,40,30.40,30.31,30.15,10,10,8,16,6,18,0.00,4,,98
2013-4-19,60,52,48,56,51,46,100,95,82,30.14,29.92,29.70,10,2,0,30,8,41,0.02,8,Fog-Rain,183
2013-4-20,57,52,46,45,36,26,83,57,34,30.22,29.81,29.65,10,6,1,31,18,41,0.33,6,Rain,255
2013-4-21,54,44,35,32,24,18,70,48,26,30.66,30.51,30.27,10,10,10,18,12,26,0.00,0,,354
2013-4-22,52,42,34,36,31,26,85,63,39,30.68,30.63,30.54,10,10,8,23,10,34,0.00,0,,67
2013-4-23,48,44,39,41,37,30,86,78,67,30.51,30.28,30.02,10,8,3,22,14,31,0.00,8,Rain,22
2013-4-24,60,52,44,48,43,38,100,82,53,30.02,29.95,29.90,10,6,1,20,14,29,0.00,5,,237
2013-4-25,64,51,39,49,39,27,94,65,27,30.27,30.08,29.90,10,8,3,21,8,28,0.02,4,Rain,284
2013-4-26,57,46,36,44,37,30,90,66,40,30.40,30.35,30.28,10,9,6,12,5,,0.00,1,,95
2013-4-27,55,46,37,45,42,37,100,86,59,30.41,30.37,30.33,10,5,0,12,5,,0.00,1,Fog,83
2013-4-28,57,46,35,45,39,35,100,87,45,30.35,30.31,30.26,10,4,0,10,1,,0.00,2,Fog,141
2013-4-29,59,51,45,46,41,37,93,69,53,30.28,30.26,30.24,10,9,5,10,3,,0.00,4,,128
2013-4-30,59,50,42,39,34,29,68,52,33,30.35,30.31,30.25,10,10,10,14,4,,0.00,2,,98